Miscellaneous Local Product
Issued by NWS North Platte, NE

Home | Current Version | Previous Version | Text Only | Print | Product List | Glossary On
Versions: 1 2 3 4 5 6 7 8 9 10 11 12 13 14 15 16 17 18 19 20 21 22 23 24 25 26 27 28 29 30 31 32 33 34 35 36 37 38 39 40 41 42 43 44 45 46 47 48 49 50
000
AXUS43 KLBF 110210
MISLBF


WESTERN AND NORTH CENTRAL NEBRASKA HOURLY WEATHER ROUNDUP
NATIONAL WEATHER SERVICE NORTH PLATTE NE
800 PM CST SUN DEC 10 2017

NOTE: "FAIR" INDICATES FEW OR NO CLOUDS BELOW 12,000 FEET WITH NO
SIGNIFICANT WEATHER AND/OR OBSTRUCTIONS TO VISIBILITY.

NOTE: STATIONS NOT REPORTING VARIABLES SUCH AS SKY/WEATHER OR
PRESSURE ARE PROVIDED BY RAWS AND APRS NETWORKS AND ARE NOT UNDER
NATIONAL WEATHER SERVICE QUALITY CONTROL.

...OBSERVATIONS IN AND NEAR THE EASTERN PANHANDLE OF NEBRASKA...

CITY           SKY/WX    TMP DP  RH WIND       PRES   REMARKS
PINE RIDGE     CLEAR     43  16  33 W3        30.18R
GORDON         FAIR      47  16  29 W17       30.15S
CHADRON        CLOUDY    41  13  31 W8        30.21S
ALLIANCE       CLOUDY    32   7  35 W13       30.23R WCI  22
SIDNEY         CLEAR     41   5  22 W14       30.27S
CRESCENT LAKE    N/A     39   6  25 W9          N/A  WCI  33
$$

...OBSERVATIONS IN NORTHERN NEBRASKA AND FAR SOUTHERN SOUTH DAKOTA...

CITY           SKY/WX    TMP DP  RH WIND       PRES   REMARKS
WINNER         FAIR      46  19  34 W10       30.06F
VALENTINE      CLEAR     42  19  39 W8        30.11F
THEDFORD       CLEAR     39  12  32 W9        30.16S WCI  33
AINSWORTH      CLEAR     38  19  46 W10       30.10F WCI  32
O`NEILL        PTCLDY    43  20  40 W7        30.07F
ORD            CLEAR     45  13  27 NW6       30.10F
BROKEN BOW     CLEAR     38  12  34 W7        30.14S WCI  33
VALENTINE NWR    N/A     45  15  29 W7          N/A
HALSEY           N/A     44   9  23 W5          N/A
BUTTE            N/A     45  22  39 W3          N/A
CHAMBERS         N/A     43  17  34 W3          N/A
EWING            N/A     41  21  44 CALM        N/A
$$

...OBSERVATIONS IN SOUTHWEST NEBRASKA AND FAR NORTHEAST COLORADO...

CITY           SKY/WX    TMP DP  RH WIND       PRES   REMARKS
WRAY           FAIR      34   1  25 W10       30.26S WCI  26
HOLYOKE        FAIR      34   3  27 W9        30.25S WCI  26
IMPERIAL       CLOUDY    42   3  19 W7        30.23S
OGALLALA       CLOUDY    37   6  28 W6        30.22S WCI  32
NORTH PLATTE   CLEAR     32  14  47 NW7       30.19R WCI  26
MCCOOK         CLEAR     40   9  28 W10       30.20S WCI  33
LEXINGTON      CLOUDY    37  13  37 W9        30.16F WCI  31
STAPLETON        N/A     38  11  32 CALM        N/A
GOTHENBURG       N/A     46  11  24 W3          N/A
CALLAWAY         N/A     42  12  29 W7          N/A
$$

...OBSERVATIONS IN CENTRAL LINCOLN COUNTY AREA...

CITY           SKY/WX    TMP DP  RH WIND       PRES   REMARKS
N.P. AIRPORT   CLEAR     32  14  47 NW7       30.19R WCI  26
N.P. DOWNTOWN    N/A     40  16  37 CALM        N/A
N.P. SOUTHEAST   N/A     44  13  28 CALM        N/A
N.P. HILLCREST   N/A     43  11  27 W7          N/A
$$

...SOME OBSERVATIONS FROM AROUND THE REGION...

CITY           SKY/WX    TMP DP  RH WIND       PRES   REMARKS
DENVER         CLOUDY    41  -5  14 S7        30.32F
GRAND JUNCTION CLOUDY    28   3  34 CALM      30.49S
LARAMIE        CLOUDY    25   4  40 SW5       30.39S WCI  19
CHEYENNE       CLOUDY    44   0  16 W15       30.31F
CASPER         CLOUDY    36  18  48 SW23      30.35F WCI  24
BISMARCK       CLOUDY    42  29  59 W6        29.96F
RAPID CITY     PTCLDY    52   7  16 NW13      30.12F
PIERRE         CLOUDY    46  21  37 W14       30.02S
SIOUX FALLS    CLOUDY    35  29  78 SW3       30.02F
OMAHA          PTCLDY    33  22  63 CALM      30.09F
GRAND ISLAND   CLEAR     44  17  33 W13       30.12F
SCOTTSBLUFF    CLOUDY    35   8  32 NW8       30.27R WCI  29
KANSAS CITY    CLEAR     45  24  43 CALM      30.14S
HILL CITY      CLEAR     42  15  33 W9        30.21F
WICHITA        CLEAR     43  18  36 W7        30.20S
DODGE CITY     CLEAR     46   8  21 W9        30.27S
OKLAHOMA CITY  CLEAR     53  13  20 NW3       30.26F
DALLAS         PTCLDY    58  20  22 W8        30.28S
AMARILLO       CLOUDY    47   5  18 S6        30.36R
$$




USA.gov is the U.S. government's official web portal to all federal, state and local government web resources and services.